Flag for Germany Weather past 2 weeks in Ludwigshafen, Rhineland-Palatinate, Germany

Now
55 °F

Light rain. Partly sunny.


Feels Like: 50 °F
Forecast: 40 / 47 °F
Wind: 22 mph from West

Location: Baden Wurttemberg - Neuostheim

Current Time: Mar 31, 2015 at 10:56:58 AM

Latest Report: Mar 31, 2015 at 10:20 AM


Visibility: N/A

Pressure: 29.56 "Hg

Humidity: 67%

Dew point: 45 °F

Location of LudwigshafenLocation

Historic Weather in Ludwigshafen — Graph

°F

Ludwigshafen temperature yesterday

Maximum temperature yesterday: 54 °F (at 3:50 PM)
Minimum temperature yesterday: 46 °F (at 6:50 AM)
Average temperature yesterday: 50 °F

Past Weeks' High & Low Weather Summary

 TemperatureHumidityPressure
High64 °F (Mar 17, 3:50 PM)100% (Mar 21, 9:20 AM)30.30 "Hg (Mar 21, 9:20 AM)
Low30 °F (Mar 24, 5:20 AM)34% (Mar 20, 3:50 PM)29.50 "Hg (Mar 30, 5:50 AM)
Average50 °F63%30.00 "Hg
* Reported Mar 16 8:20 AM — Mar 31 9:20 AM, Ludwigshafen, Weather by CustomWeather, © 2015

Note: Actual official high and low records may vary slightly from our data, if they occured in-between our weather recording intervals... More about our weather records

Advertising

Ludwigshafen weather history for previous 24 hours

 ConditionsComfort  
Time TempWeatherWind HumidityBarometerVisibility
9:20 AM
Tue, Mar 31
55 °FLight rain. Overcast.22 mph72%29.53 "HgN/A
8:50 AM57 °FPartly sunny.22 mph63%29.50 "HgN/A
8:20 AM57 °FOvercast.22 mph63%29.50 "HgN/A
7:50 AM57 °FPassing clouds.20 mph63%29.50 "HgN/A
7:20 AM57 °FOvercast.17 mph67%29.50 "HgN/A
6:50 AM55 °FMostly cloudy.14 mph77%29.50 "HgN/A
6:20 AM52 °FLight rain. Mostly cloudy.14 mph94%29.53 "HgN/A
5:50 AM52 °FLight rain. Mostly cloudy.14 mph88%29.56 "HgN/A
5:20 AM50 °FLight rain. Overcast.15 mph94%29.56 "HgN/A
9:20 PM
Mon, Mar 30
48 °FPassing clouds.6 mph43%29.92 "HgN/A
8:50 PM48 °FPassing clouds.9 mph43%29.92 "HgN/A
8:20 PM50 °FSunny.9 mph40%29.92 "Hg10 mi
7:50 PM50 °FSunny.14 mph40%29.89 "Hg10 mi
7:20 PM52 °FPassing clouds.14 mph41%29.89 "HgN/A
6:50 PM52 °FPassing clouds.16 mph38%29.86 "HgN/A
6:20 PM52 °FSunny.20 mph38%29.86 "Hg10 mi
5:50 PM52 °FBroken clouds.24 mph38%29.83 "HgN/A
5:20 PM52 °FScattered clouds.21 mph44%29.83 "HgN/A
4:50 PM52 °FScattered clouds.18 mph47%29.83 "HgN/A
4:20 PM52 °FBroken clouds.24 mph44%29.80 "HgN/A
3:50 PM54 °FPartly sunny.18 mph44%29.80 "HgN/A
3:20 PM52 °FBroken clouds.21 mph38%29.77 "HgN/A
2:50 PM52 °FScattered clouds.22 mph35%29.77 "HgN/A
2:20 PM52 °FScattered showers. Scattered clouds.22 mph47%29.77 "HgN/A
1:50 PM52 °FScattered clouds.17 mph54%29.74 "HgN/A
1:20 PM50 °FPartly sunny.16 mph62%29.74 "HgN/A
12:50 PM48 °FScattered showers. Partly sunny.15 mph66%29.71 "HgN/A
12:20 PM50 °FScattered showers. Broken clouds.20 mph58%29.71 "HgN/A
11:50 AM52 °FPartly sunny.20 mph58%29.68 "HgN/A
11:20 AM48 °FPartly sunny.15 mph66%29.68 "HgN/A
10:50 AM48 °FPartly sunny.17 mph66%29.68 "HgN/A
10:20 AM46 °FScattered showers. Partly sunny.13 mph76%29.65 "HgN/A
Weather by CustomWeather, © 2015

See weather overviewHow to use our weather pages